Location: Beuerbach
(48.1459°N, 10.9174°E)
Time: 20:21:05
(UTC+00:00)

SL-16 R/B - Pass Details

Date: 13 August 2024
Orbit: 842 x 845 km, 71.0° (Epoch: 07 September)

Event Time Altitude Azimuth Distance (km) Brightness Sun altitude
Exits shadow 22:17:40 43° 89° (E) 1,178 2.8 -26.0°
Drops below altitude 10° 22:22:21 10° 38° (NE) 2,474 5.0 -26.2°
Sets 22:24:54 0° 33° (NNE) 3,414 5.9 -26.3°
